This is the latest recevied weather packets stored in our database for station/object EA1ZE. If no packets are shown the sender has not sent any weather packets the latest 10 day(s).
| Time | Temp. | Humidity | Pressure | Rain* | Wind** | Luminosity | Snow |
|---|---|---|---|---|---|---|---|
| 1777815985 | 15.56° C | 71% | 1011.2 hPa | 0 mm | - | - | - |
| 1777815095 | 15.56° C | 72% | 1011 hPa | 0 mm | - | - | - |
| 1777814192 | 16.11° C | 72% | 1011.1 hPa | 0 mm | - | - | - |
| 1777813313 | 16.11° C | 68% | 1011.1 hPa | 0 mm | - | - | - |
| 1777812380 | 15.56° C | 68% | 1011.2 hPa | 0 mm | - | - | - |
| 1777811511 | 15.56° C | 69% | 1011.3 hPa | 0 mm | - | - | - |
| 1777810585 | 15.56° C | 72% | 1011.5 hPa | 0 mm | - | - | - |
| 1777809684 | 16.11° C | 70% | 1011.7 hPa | 0 mm | - | - | - |
| 1777808792 | 16.11° C | 68% | 1011.8 hPa | 0 mm | - | - | - |
| 1777807893 | 16.11° C | 70% | 1011.9 hPa | 0 mm | - | - | - |
| 1777807009 | 15.56° C | 70% | 1012.3 hPa | 0 mm | - | - | - |
| 1777806084 | 16.11° C | 70% | 1012.4 hPa | 0 mm | - | - | - |
| 1777805183 | 15.56° C | 71% | 1012.4 hPa | 0 mm | - | - | - |
| 1777804258 | 15.56° C | 73% | 1012.6 hPa | 0 mm | - | - | - |
| 1777803357 | 15° C | 73% | 1012.7 hPa | 0 mm | - | - | - |
| 1777802467 | 15° C | 75% | 1012.7 hPa | 0 mm | - | - | - |
| 1777801550 | 14.44° C | 77% | 1012.7 hPa | 0 mm | - | - | - |
| 1777800652 | 13.89° C | 83% | 1012.8 hPa | 0 mm | - | - | - |
| 1777799761 | 12.78° C | 86% | 1012.8 hPa | 0 mm | - | - | - |
| 1777798844 | 12.22° C | 88% | 1013 hPa | 0 mm | - | - | - |
| 1777797962 | 11.67° C | 89% | 1013 hPa | 0 mm | - | - | - |
| 1777797043 | 11.67° C | 90% | 1013 hPa | 0 mm | - | - | - |
| 1777796141 | 11.67° C | 89% | 1013.1 hPa | 0 mm | - | - | - |
| 1777795300 | 11.11° C | 88% | 1013.1 hPa | 0 mm | - | - | - |
| 1777794341 | 11.11° C | 87% | 1013.1 hPa | 0 mm | - | - | - |
* Rain latest hour (hover to see other rain measurements)
** Current wind speed in m/s (hover to see current wind gust speed)